Starlink 30497

operational
NORAD ID: 58011 Int'l Des: 2023-153 Owner: SPXS Country: US Constellation: starlink
LEOCIRCULAR

About Starlink 30497

Description loading...

Live Position

Loading 3D Globe...

Upcoming Passes

Altitude History

Altitude vs Time

uPlot chart will show altitude changes over time

Two-Line Element Set

1 58011U 23153W 25348.88744854 -.00008464 00000-0 -61161-3 0 9991
2 58011 43.0024 170.0603 0000357 331.2704 28.8118 15.02577013122118
Epoch: Dec 14, 2025 • Age: 20 hours

Current Status

Altitude 558.3 km
Velocity 7.59 km/s
Sub-Earth Point 15.53°N, 13.37°W
Launch Date Oct 5, 2023
Age 2.1 years
Type internet

Technical Details

Classification Payload
Mass 730.00 kg
Dry Mass 700.00 kg
Total Mass 730.00 kg
Length 0.30 m
Diameter 4.10 m
Span 29.00 m
Shape Box + pan
Manufacturer SPXS
Bus Type Starlink V2M
Phase Status In Orbit
Owner/State SPXS/US

Large Constellations

Loading constellations...